Location: Fort Worth, Tx
(32.7431°N, 97.3695°W)
Time: 18:15:15
(UTC-04:00)

Transit 4A - Pass Details

Date: 04 March 2024
Orbit: 871 x 972 km, 66.8° (Epoch: 21 April)

Event Time Altitude Azimuth Distance (km) Brightness Sun altitude
Rises 10:42:57 0° 328° (NNW) 3,468 10.4 32.6°
Reaches altitude 10° 10:45:29 10° 324° (NW) 2,522 9.8 33.1°
Maximum altitude 10:51:06 52° 249° (WSW) 1,071 8.5 34.0°
Drops below altitude 10° 10:56:42 10° 174° (S) 2,517 10.9 35.0°
Sets 10:59:15 0° 169° (S) 3,460 11.5 35.4°
